sat.trackr.live / text

‹ back to catalog

STARLINK-5264

NORAD 54206 · 2022-141BB

PAYLOAD ACTIVE UNKNOWN

§ Identity

Operator
Country
US
Launch date
2022-10-28
Launch site
AFWTR
Launch vehicle
Mass (kg)
RCS (m²)

Purposes: comms

External: N2YO · Heavens-Above · Gunter

§ Orbital elements

Epoch: 2026-09-20T06:14:26.682720Z

Period
93.79 min
Inclination
53.1587°
Eccentricity
0.0001234
Mean motion
15.35399636 rev/d
Perigee alt
458.9 km
Apogee alt
460.6 km
Semi-major
6,837.9 km
B*
4.8438e-5
RAAN
155.0783°
Arg perigee
83.5025°
Mean anomaly
276.6119°
Rev number
21,600

§ Raw data

STARLINK-52641 54206U 22141BB  26263.26003105  .00001309  00000+0  48438-4 0  99962 54206  53.1587 155.0783 0001234  83.5025 276.6119 15.35399636216001

JSON: /api/v1/satellites/54206 · /tle

For live sub-satellite position, see the globe view (requires WebGL).

§ Visibility from observer

Set your observer location to see the next 7 days of passes ≥ 10°. The values pass through the URL so the page stays shareable.

No JS? Fill the form by hand. The geolocation button needs JavaScript.